,,,PA_Meas_PMT16A,,PR_Meas_QMR101_102,,RH_Meas_QMH101,,SR_Meas_QMS101,,TA_Meas_QMH101,,GenWind,,GenWind,
date,time,status,PA,status,PR,status,RH,status,SR,status,TA,status,DirAvg,status,SpdAvg,
2010-08-03, 00:00:04,VALID,1004.45,VALID,0,INVALID,110.825,VALID,0,VALID,23.8751,VALID,358,VALID,0,
2010-08-03, 00:01:04,VALID,1004.43,VALID,0,INVALID,110.787,VALID,0,VALID,23.8946,VALID,358,VALID,0,
2010-08-03, 00:02:04,VALID,1004.42,VALID,0,INVALID,110.741,VALID,0,VALID,23.9371,VALID,358,VALID,0,
2010-08-03, 00:03:04,VALID,1004.41,VALID,0,INVALID,110.733,VALID,0,VALID,23.9159,VALID,358,VALID,0,
2010-08-03, 00:04:04,VALID,1004.38,VALID,0,INVALID,110.726,VALID,0,VALID,23.9159,VALID,358,VALID,0,
2010-08-03, 00:05:04,VALID,1004.34,VALID,0,INVALID,110.726,VALID,0,VALID,23.9159,VALID,358,VALID,0,
2010-08-03, 00:06:04,VALID,1004.32,VALID,0,INVALID,110.672,VALID,0.100563,VALID,23.9548,VALID,358,VALID,0,
2010-08-03, 00:07:04,VALID,1004.27,VALID,0,INVALID,110.665,VALID,0,VALID,23.9548,VALID,358,VALID,0,
2010-08-03, 00:08:04,VALID,1004.25,VALID,0,INVALID,110.634,VALID,0,VALID,23.9761,VALID,358,VALID,0,
2010-08-03, 00:09:04,VALID,1004.22,VALID,0,INVALID,110.604,VALID,0,VALID,23.9742,VALID,358,VALID,0,
2010-08-03, 00:10:04,VALID,1004.18,VALID,0,INVALID,110.588,VALID,0,VALID,23.9548,VALID,358,VALID,0,
2010-08-03, 00:11:04,VALID,1004.16,VALID,0,INVALID,110.512,VALID,0,VALID,23.9742,VALID,358,VALID,0,
2010-08-03, 00:12:04,VALID,1004.13,VALID,0,INVALID,110.497,VALID,0,VALID,23.9937,VALID,358,VALID,0,
2010-08-03, 00:13:04,VALID,1004.15,VALID,0,INVALID,110.474,VALID,0,VALID,23.9937,VALID,358,VALID,0,
2010-08-03, 00:14:04,VALID,1004.12,VALID,0,INVALID,110.466,VALID,0,VALID,23.9937,VALID,358,VALID,0,
2010-08-03, 00:15:04,VALID,1004.16,VALID,0,INVALID,110.466,VALID,0,VALID,24.0345,VALID,358,VALID,0,
2010-08-03, 00:16:04,VALID,1004.1,VALID,0,INVALID,110.451,VALID,0,VALID,24.0132,VALID,358,VALID,0,
2010-08-03, 00:17:04,VALID,1004.12,VALID,0,INVALID,110.428,VALID,0,VALID,24.0132,VALID,358,VALID,0,
2010-08-03, 00:18:04,VALID,1004.13,VALID,0,INVALID,110.398,VALID,0,VALID,24.0326,VALID,358,VALID,0,
2010-08-03, 00:19:04,VALID,1004.09,VALID,0,INVALID,110.405,VALID,0,VALID,24.0326,VALID,358,VALID,0,
2010-08-03, 00:20:04,VALID,1004.08,VALID,0,INVALID,110.367,VALID,0,VALID,24.0326,VALID,358,VALID,0,
2010-08-03, 00:21:04,VALID,1004.07,VALID,0,INVALID,110.352,VALID,0,VALID,24.0734,VALID,358,VALID,0,
2010-08-03, 00:22:04,VALID,1004.07,VALID,0,INVALID,110.314,VALID,0,VALID,24.0716,VALID,358,VALID,0,
2010-08-03, 00:23:04,VALID,1004.06,VALID,0,INVALID,110.306,VALID,0,VALID,24.0929,VALID,358,VALID,0,
2010-08-03, 00:24:04,VALID,1004.03,VALID,0,INVALID,110.306,VALID,0,VALID,24.0716,VALID,358,VALID,0,
2010-08-03, 00:25:04,VALID,1004.04,VALID,0,INVALID,110.314,VALID,0,VALID,24.0929,VALID,358,VALID,0,
2010-08-03, 00:26:04,VALID,1004.01,VALID,0,INVALID,110.352,VALID,0,VALID,24.0716,VALID,358,VALID,0,
2010-08-03, 00:27:04,VALID,1004.03,VALID,0,INVALID,110.352,VALID,0,VALID,24.0716,VALID,358,VALID,0,
2010-08-03, 00:28:04,VALID,1003.97,VALID,0,INVALID,110.336,VALID,0,VALID,24.1123,VALID,358,VALID,0,
2010-08-03, 00:29:04,VALID,1003.98,VALID,0,INVALID,110.336,VALID,0,VALID,24.1123,VALID,358,VALID,0,
2010-08-03, 00:30:04,VALID,1003.97,VALID,0,INVALID,110.352,VALID,0,VALID,24.1105,VALID,358,VALID,0,
2010-08-03, 00:31:04,VALID,1003.95,VALID,0,INVALID,110.336,VALID,0,VALID,24.1318,VALID,358,VALID,0,
2010-08-03, 00:32:04,VALID,1003.91,VALID,0,INVALID,110.359,VALID,0,VALID,24.1105,VALID,358,VALID,0,
2010-08-03, 00:33:04,VALID,1003.9,VALID,0,INVALID,110.367,VALID,0,VALID,24.1105,VALID,358,VALID,0,
2010-08-03, 00:34:04,VALID,1003.87,VALID,0,INVALID,110.367,VALID,0,VALID,24.1105,VALID,358,VALID,0,
2010-08-03, 00:35:04,VALID,1003.85,VALID,0,INVALID,110.352,VALID,0,VALID,24.1105,VALID,358,VALID,0,
2010-08-03, 00:36:04,VALID,1003.83,VALID,0,INVALID,110.39,VALID,0,VALID,24.1318,VALID,358,VALID,0,
2010-08-03, 00:37:04,VALID,1003.78,VALID,0,INVALID,110.405,VALID,0,VALID,24.13,VALID,358,VALID,0,
2010-08-03, 00:38:04,VALID,1003.77,VALID,0,INVALID,110.382,VALID,0,VALID,24.1318,VALID,358,VALID,0,
2010-08-03, 00:39:04,VALID,1003.76,VALID,0,INVALID,110.443,VALID,0,VALID,24.1105,VALID,358,VALID,0,
2010-08-03, 00:40:04,VALID,1003.74,VALID,0,INVALID,110.474,VALID,0,VALID,24.1123,VALID,358,VALID,0,
2010-08-03, 00:41:04,VALID,1003.71,VALID,0,INVALID,110.504,VALID,0,VALID,24.1123,VALID,358,VALID,0,
2010-08-03, 00:42:04,VALID,1003.7,VALID,0,INVALID,110.52,VALID,0,VALID,24.0716,VALID,358,VALID,0,
2010-08-03, 00:43:04,VALID,1003.69,VALID,0,INVALID,110.535,VALID,0,VALID,24.0929,VALID,358,VALID,0,
2010-08-03, 00:44:04,VALID,1003.64,VALID,0,INVALID,110.527,VALID,0,VALID,24.0521,VALID,358,VALID,0,
2010-08-03, 00:45:04,VALID,1003.61,VALID,0,INVALID,110.459,VALID,0,VALID,24.0716,VALID,358,VALID,0,
2010-08-03, 00:46:04,VALID,1003.59,VALID,0,INVALID,110.459,VALID,0,VALID,24.0929,VALID,358,VALID,0,
2010-08-03, 00:47:04,VALID,1003.56,VALID,0,INVALID,110.436,VALID,0,VALID,24.0716,VALID,358,VALID,0,
2010-08-03, 00:48:04,VALID,1003.51,VALID,0,INVALID,110.436,VALID,0,VALID,24.0929,VALID,358,VALID,0,
2010-08-03, 00:49:04,VALID,1003.52,VALID,0,INVALID,110.413,VALID,0,VALID,24.0716,VALID,358,VALID,0,
2010-08-03, 00:50:04,VALID,1003.46,VALID,0,INVALID,110.42,VALID,0,VALID,24.0716,VALID,358,VALID,0,
2010-08-03, 00:51:04,VALID,1003.45,VALID,0,INVALID,110.359,VALID,0,VALID,24.0716,VALID,358,VALID,0,
2010-08-03, 00:52:04,VALID,1003.41,VALID,0,INVALID,110.314,VALID,0,VALID,24.0929,VALID,358,VALID,0,
2010-08-03, 00:53:04,VALID,1003.43,VALID,0,INVALID,110.245,VALID,0,VALID,24.091,VALID,358,VALID,0,
2010-08-03, 00:54:04,VALID,1003.43,VALID,0,INVALID,110.23,VALID,0,VALID,24.091,VALID,358,VALID,0,
2010-08-03, 00:55:04,VALID,1003.37,VALID,0,INVALID,110.176,VALID,0,VALID,24.091,VALID,358,VALID,0,
2010-08-03, 00:56:04,VALID,1003.39,VALID,0,INVALID,110.161,VALID,0,VALID,24.1318,VALID,358,VALID,0,
2010-08-03, 00:57:04,VALID,1003.4,VALID,0,INVALID,110.123,VALID,0,VALID,24.1123,VALID,358,VALID,0,
2010-08-03, 00:58:04,VALID,1003.34,VALID,0,INVALID,110.131,VALID,0,VALID,24.091,VALID,358,VALID,0,
2010-08-03, 00:59:04,VALID,1003.35,VALID,0,INVALID,110.108,VALID,0,VALID,24.091,VALID,358,VALID,0,
2010-08-03, 01:00:04,VALID,1003.34,VALID,0,INVALID,110.138,VALID,0,VALID,24.091,VALID,358,VALID,0,
2010-08-03, 01:01:04,VALID,1003.35,VALID,0,INVALID,110.1,VALID,0,VALID,24.091,VALID,358,VALID,0,
2010-08-03, 01:02:04,VALID,1003.32,VALID,0,INVALID,110.1,VALID,0,VALID,24.1123,VALID,358,VALID,0,
2010-08-03, 01:03:04,VALID,1003.3,VALID,0,INVALID,110.077,VALID,0,VALID,24.1123,VALID,358,VALID,0,
2010-08-03, 01:04:04,VALID,1003.28,VALID,0,INVALID,110.062,VALID,0,VALID,24.1123,VALID,358,VALID,0,
2010-08-03, 01:05:04,VALID,1003.26,VALID,0,INVALID,110.069,VALID,0,VALID,24.091,VALID,358,VALID,0,
2010-08-03, 01:06:04,VALID,1003.24,VALID,0,INVALID,110.054,VALID,0,VALID,24.0929,VALID,358,VALID,0,
2010-08-03, 01:07:04,VALID,1003.22,VALID,0,INVALID,110.1,VALID,0,VALID,24.0716,VALID,358,VALID,0,
2010-08-03, 01:08:04,VALID,1003.19,VALID,0,INVALID,110.108,VALID,0,VALID,24.0734,VALID,358,VALID,0,
2010-08-03, 01:09:04,VALID,1003.2,VALID,0,INVALID,110.123,VALID,0,VALID,24.0326,VALID,358,VALID,0,
2010-08-03, 01:10:04,VALID,1003.18,VALID,0,INVALID,110.115,VALID,0,VALID,24.0539,VALID,358,VALID,0,
2010-08-03, 01:11:04,VALID,1003.15,VALID,0,INVALID,110.1,VALID,0,VALID,24.0326,VALID,358,VALID,0,
2010-08-03, 01:12:04,VALID,1003.14,VALID,0,INVALID,110.077,VALID,0,VALID,24.0539,VALID,358,VALID,0,
2010-08-03, 01:13:04,VALID,1003.13,VALID,0,INVALID,110.108,VALID,0,VALID,24.0132,VALID,358,VALID,0,
2010-08-03, 01:14:04,VALID,1003.12,VALID,0,INVALID,110.153,VALID,0,VALID,24.015,VALID,358,VALID,0,
2010-08-03, 01:15:04,VALID,1003.13,VALID,0,INVALID,110.184,VALID,0,VALID,23.9955,VALID,358,VALID,0,
2010-08-03, 01:16:04,VALID,1003.08,VALID,0,INVALID,110.169,VALID,0,VALID,23.9955,VALID,358,VALID,0,
2010-08-03, 01:17:04,VALID,1003.07,VALID,0,INVALID,110.176,VALID,0,VALID,23.9548,VALID,358,VALID,0,
2010-08-03, 01:18:04,VALID,1003.07,VALID,0,INVALID,110.153,VALID,0,VALID,23.9353,VALID,358,VALID,0,
2010-08-03, 01:19:04,VALID,1003.06,VALID,0,INVALID,110.123,VALID,0,VALID,23.9761,VALID,358,VALID,0,
2010-08-03, 01:20:04,VALID,1003.03,VALID,0,INVALID,110.1,VALID,0,VALID,23.9548,VALID,358,VALID,0,
2010-08-03, 01:21:04,VALID,1003.01,VALID,0,INVALID,110.047,VALID,0,VALID,23.9548,VALID,358,VALID,0,
2010-08-03, 01:22:04,VALID,1003,VALID,0,INVALID,110.062,VALID,0,VALID,23.9353,VALID,358,VALID,0,
2010-08-03, 01:23:04,VALID,1002.97,VALID,0,INVALID,110.008,VALID,0,VALID,23.9761,VALID,358,VALID,0,
2010-08-03, 01:24:04,VALID,1002.98,VALID,0,INVALID,110.039,VALID,0,VALID,23.9566,VALID,358,VALID,0,
2010-08-03, 01:25:04,VALID,1002.95,VALID,0,INVALID,110.062,VALID,0,VALID,23.9159,VALID,358,VALID,0,
2010-08-03, 01:26:04,VALID,1002.95,VALID,0,INVALID,110.054,VALID,0,VALID,23.8769,VALID,358,VALID,0,
2010-08-03, 01:27:04,VALID,1002.94,VALID,0,INVALID,109.978,VALID,0,VALID,23.9371,VALID,358,VALID,0,
2010-08-03, 01:28:04,VALID,1002.92,VALID,0,INVALID,109.902,VALID,0,VALID,23.9177,VALID,358,VALID,0,
2010-08-03, 01:29:04,VALID,1002.91,VALID,0,INVALID,109.909,VALID,0,VALID,23.9159,VALID,358,VALID,0,
2010-08-03, 01:30:04,VALID,1002.91,VALID,0,INVALID,109.917,VALID,0,VALID,23.9177,VALID,358,VALID,0,
2010-08-03, 01:31:04,VALID,1002.9,VALID,0,INVALID,109.94,VALID,0,VALID,23.8769,VALID,358,VALID,0,
2010-08-03, 01:32:04,VALID,1002.89,VALID,0,INVALID,109.955,VALID,0,VALID,23.838,VALID,358,VALID,0,
2010-08-03, 01:33:04,VALID,1002.89,VALID,0,INVALID,109.993,VALID,0,VALID,23.8575,VALID,358,VALID,0,
2010-08-03, 01:34:04,VALID,1002.86,VALID,0,INVALID,109.986,VALID,0,VALID,23.8185,VALID,358,VALID,0,
2010-08-03, 01:35:04,VALID,1002.88,VALID,0,INVALID,110.008,VALID,0,VALID,23.8203,VALID,358,VALID,0,
2010-08-03, 01:36:04,VALID,1002.87,VALID,0,INVALID,109.963,VALID,0,VALID,23.7991,VALID,358,VALID,0,
2010-08-03, 01:37:04,VALID,1002.85,VALID,0,INVALID,109.925,VALID,0,VALID,23.8416,VALID,358,VALID,0,
2010-08-03, 01:38:04,VALID,1002.87,VALID,0,INVALID,109.963,VALID,0,VALID,23.7796,VALID,358,VALID,0,
2010-08-03, 01:39:04,VALID,1002.83,VALID,0,INVALID,109.902,VALID,0,VALID,23.7814,VALID,358,VALID,0,
2010-08-03, 01:40:04,VALID,1002.84,VALID,0,INVALID,109.879,VALID,0,VALID,23.7814,VALID,358,VALID,0,
2010-08-03, 01:41:04,VALID,1002.85,VALID,0,INVALID,109.795,VALID,0,VALID,23.8009,VALID,358,VALID,0,
2010-08-03, 01:42:04,VALID,1002.86,VALID,0,INVALID,109.787,VALID,0,VALID,23.7814,VALID,358,VALID,0,
2010-08-03, 01:43:04,VALID,1002.89,VALID,0,INVALID,109.772,VALID,0,VALID,23.7601,VALID,358,VALID,0,
2010-08-03, 01:44:04,VALID,1002.9,VALID,0,INVALID,109.711,VALID,0.100563,VALID,23.8009,VALID,358,VALID,0,
2010-08-03, 01:45:04,VALID,1002.91,VALID,0,INVALID,109.673,VALID,0,VALID,23.8009,VALID,358,VALID,0,
2010-08-03, 01:46:04,VALID,1002.92,VALID,0,INVALID,109.665,VALID,0,VALID,23.7407,VALID,358,VALID,0,
2010-08-03, 01:47:04,VALID,1002.91,VALID,0,INVALID,109.726,VALID,0,VALID,23.7425,VALID,358,VALID,0,
2010-08-03, 01:48:04,VALID,1002.92,VALID,0,INVALID,109.741,VALID,0,VALID,23.7425,VALID,358,VALID,0,
2010-08-03, 01:49:04,VALID,1002.9,VALID,0,INVALID,109.658,VALID,0,VALID,23.7425,VALID,358,VALID,0,
2010-08-03, 01:50:04,VALID,1002.91,VALID,0,INVALID,109.619,VALID,0,VALID,23.7619,VALID,358,VALID,0,
2010-08-03, 01:51:04,VALID,1002.9,VALID,0,INVALID,109.581,VALID,0,VALID,23.7407,VALID,358,VALID,0,
2010-08-03, 01:52:04,VALID,1002.87,VALID,0,INVALID,109.566,VALID,0,VALID,23.7814,VALID,358,VALID,0,
2010-08-03, 01:53:04,VALID,1002.88,VALID,0,INVALID,109.49,VALID,0,VALID,23.7407,VALID,358,VALID,0,
2010-08-03, 01:54:04,VALID,1002.87,VALID,0,INVALID,109.474,VALID,0,VALID,23.7601,VALID,358,VALID,0,
2010-08-03, 01:55:04,VALID,1002.9,VALID,0,INVALID,109.482,VALID,0,VALID,23.7601,VALID,358,VALID,0,
2010-08-03, 01:56:04,VALID,1002.91,VALID,0,INVALID,109.551,VALID,0,VALID,23.7212,VALID,358,VALID,0,
2010-08-03, 01:57:04,VALID,1002.88,VALID,0,INVALID,109.551,VALID,0,VALID,23.723,VALID,358,VALID,0,
2010-08-03, 01:58:04,VALID,1002.87,VALID,0,INVALID,109.551,VALID,0,VALID,23.6823,VALID,358,VALID,0,
2010-08-03, 01:59:04,VALID,1002.88,VALID,0,INVALID,109.513,VALID,0,VALID,23.7035,VALID,358,VALID,0,
2010-08-03, 02:00:04,VALID,1002.87,VALID,0,INVALID,109.429,VALID,0.100563,VALID,23.723,VALID,358,VALID,0,
2010-08-03, 02:01:04,VALID,1002.86,VALID,0,INVALID,109.421,VALID,0,VALID,23.6823,VALID,358,VALID,0,
2010-08-03, 02:02:04,VALID,1002.85,VALID,0,INVALID,109.413,VALID,0,VALID,23.723,VALID,358,VALID,0,
2010-08-03, 02:03:04,VALID,1002.87,VALID,0,INVALID,109.391,VALID,0,VALID,23.723,VALID,358,VALID,0,
2010-08-03, 02:04:04,VALID,1002.81,VALID,0,INVALID,109.429,VALID,0,VALID,23.6823,VALID,358,VALID,0,
2010-08-03, 02:05:04,VALID,1002.83,VALID,0,INVALID,109.49,VALID,0.100563,VALID,23.6434,VALID,358,VALID,0,
2010-08-03, 02:06:04,VALID,1002.84,VALID,0,INVALID,109.535,VALID,0.100563,VALID,23.6239,VALID,358,VALID,0,
2010-08-03, 02:07:04,VALID,1002.78,VALID,0,INVALID,109.474,VALID,0,VALID,23.6044,VALID,358,VALID,0,
2010-08-03, 02:08:04,VALID,1002.79,VALID,0,INVALID,109.497,VALID,0,VALID,23.585,VALID,358,VALID,0,
2010-08-03, 02:09:04,VALID,1002.75,VALID,0,INVALID,109.513,VALID,0.100563,VALID,23.585,VALID,358,VALID,0,
2010-08-03, 02:10:04,VALID,1002.74,VALID,0,INVALID,109.467,VALID,0.100563,VALID,23.5655,VALID,358,VALID,0,
2010-08-03, 02:11:04,VALID,1002.74,VALID,0,INVALID,109.391,VALID,0,VALID,23.5655,VALID,358,VALID,0,
2010-08-03, 02:12:04,VALID,1002.7,VALID,0,INVALID,109.307,VALID,0,VALID,23.6044,VALID,358,VALID,0,
2010-08-03, 02:13:04,VALID,1002.72,VALID,0,INVALID,109.284,VALID,0.100563,VALID,23.6239,VALID,358,VALID,0,
2010-08-03, 02:14:04,VALID,1002.72,VALID,0,INVALID,109.314,VALID,0,VALID,23.6044,VALID,358,VALID,0,
2010-08-03, 02:15:04,VALID,1002.71,VALID,0,INVALID,109.406,VALID,0,VALID,23.5655,VALID,358,VALID,0,
2010-08-03, 02:16:04,VALID,1002.67,VALID,0,INVALID,109.406,VALID,0.100563,VALID,23.546,VALID,358,VALID,0,
2010-08-03, 02:17:04,VALID,1002.63,VALID,0,INVALID,109.429,VALID,0,VALID,23.5266,VALID,358,VALID,0,
2010-08-03, 02:18:04,VALID,1002.64,VALID,0,INVALID,109.444,VALID,0.100563,VALID,23.4664,VALID,358,VALID,0,
2010-08-03, 02:19:04,VALID,1002.65,VALID,0,INVALID,109.452,VALID,0,VALID,23.4877,VALID,358,VALID,0,
2010-08-03, 02:20:04,VALID,1002.63,VALID,0,INVALID,109.383,VALID,0,VALID,23.4877,VALID,358,VALID,0,
2010-08-03, 02:21:04,VALID,1002.62,VALID,0,INVALID,109.352,VALID,0,VALID,23.4877,VALID,358,VALID,0,
2010-08-03, 02:22:04,VALID,1002.63,VALID,0,INVALID,109.413,VALID,0,VALID,23.447,VALID,358,VALID,0,
2010-08-03, 02:23:04,VALID,1002.59,VALID,0,INVALID,109.497,VALID,0,VALID,23.4098,VALID,358,VALID,0,
2010-08-03, 02:24:04,VALID,1002.57,VALID,0,INVALID,109.574,VALID,0,VALID,23.3709,VALID,358,VALID,0,
2010-08-03, 02:25:04,VALID,1002.6,VALID,0,INVALID,109.558,VALID,0,VALID,23.3497,VALID,358,VALID,0,
2010-08-03, 02:26:04,VALID,1002.62,VALID,0,INVALID,109.551,VALID,0,VALID,23.3727,VALID,358,VALID,0,
2010-08-03, 02:27:04,VALID,1002.6,VALID,0,INVALID,109.497,VALID,0,VALID,23.332,VALID,358,VALID,0,
2010-08-03, 02:28:04,VALID,1002.62,VALID,0,INVALID,109.482,VALID,0,VALID,23.332,VALID,358,VALID,0,
2010-08-03, 02:29:04,VALID,1002.61,VALID,0,INVALID,109.368,VALID,0,VALID,23.3514,VALID,358,VALID,0,
2010-08-03, 02:30:04,VALID,1002.62,VALID,0,INVALID,109.261,VALID,0.100563,VALID,23.3921,VALID,358,VALID,0,
2010-08-03, 02:31:04,VALID,1002.61,VALID,0,INVALID,109.23,VALID,0,VALID,23.3709,VALID,358,VALID,0,
2010-08-03, 02:32:04,VALID,1002.59,VALID,0,INVALID,109.139,VALID,0,VALID,23.4098,VALID,358,VALID,0,
2010-08-03, 02:33:04,VALID,1002.6,VALID,0,INVALID,109.093,VALID,0,VALID,23.4098,VALID,358,VALID,0,
2010-08-03, 02:34:04,VALID,1002.61,VALID,0,INVALID,109.131,VALID,0,VALID,23.4098,VALID,358,VALID,0,
2010-08-03, 02:35:04,VALID,1002.6,VALID,0,INVALID,109.146,VALID,0,VALID,23.3904,VALID,358,VALID,0,
2010-08-03, 02:36:04,VALID,1002.58,VALID,0,INVALID,109.192,VALID,0,VALID,23.3709,VALID,358,VALID,0,
2010-08-03, 02:37:04,VALID,1002.59,VALID,0,INVALID,109.177,VALID,0.100563,VALID,23.3727,VALID,358,VALID,0,
2010-08-03, 02:38:04,VALID,1002.59,VALID,0,INVALID,109.146,VALID,0,VALID,23.3532,VALID,358,VALID,0,
2010-08-03, 02:39:04,VALID,1002.59,VALID,0,INVALID,109.078,VALID,0,VALID,23.3514,VALID,358,VALID,0,
2010-08-03, 02:40:04,VALID,1002.56,VALID,0,INVALID,109.062,VALID,0,VALID,23.3514,VALID,358,VALID,0,
2010-08-03, 02:41:04,VALID,1002.56,VALID,0,VALID,104,VALID,0.100563,VALID,23.3727,VALID,358,VALID,0,
2010-08-03, 02:42:04,VALID,1002.57,VALID,0,VALID,104,VALID,0,VALID,23.3709,VALID,358,VALID,0,
2010-08-03, 02:43:04,VALID,1002.59,VALID,0,INVALID,109.009,VALID,0,VALID,23.3514,VALID,358,VALID,0,
2010-08-03, 02:44:04,VALID,1002.55,VALID,0,INVALID,109.047,VALID,0,VALID,23.3302,VALID,358,VALID,0,
2010-08-03, 02:45:04,VALID,1002.56,VALID,0,INVALID,109.001,VALID,0,VALID,23.332,VALID,358,VALID,0,
2010-08-03, 02:46:04,VALID,1002.55,VALID,0,VALID,104,VALID,0.100563,VALID,23.332,VALID,358,VALID,0,
2010-08-03, 02:47:04,VALID,1002.52,VALID,0,VALID,104,VALID,0.100563,VALID,23.332,VALID,358,VALID,0,
2010-08-03, 02:48:04,VALID,1002.5,VALID,0,VALID,104,VALID,0.100563,VALID,23.3514,VALID,358,VALID,0,
2010-08-03, 02:49:04,VALID,1002.51,VALID,0,VALID,104,VALID,0,VALID,23.3921,VALID,358,VALID,0,
2010-08-03, 02:50:04,VALID,1002.47,VALID,0,VALID,104,VALID,0.100563,VALID,23.3691,VALID,358,VALID,0,
2010-08-03, 02:51:04,VALID,1002.48,VALID,0,VALID,104,VALID,0.100563,VALID,23.3921,VALID,358,VALID,0,
2010-08-03, 02:52:04,VALID,1002.44,VALID,0,VALID,104,VALID,0,VALID,23.3904,VALID,358,VALID,0,
2010-08-03, 02:53:04,VALID,1002.44,VALID,0,VALID,104,VALID,0,VALID,23.3709,VALID,358,VALID,0,
2010-08-03, 02:54:04,VALID,1002.43,VALID,0,VALID,104,VALID,0,VALID,23.3514,VALID,358,VALID,0,
2010-08-03, 02:55:04,VALID,1002.44,VALID,0,VALID,104,VALID,0,VALID,23.332,VALID,358,VALID,0,
2010-08-03, 02:56:04,VALID,1002.4,VALID,0,VALID,104,VALID,0,VALID,23.2913,VALID,358,VALID,0,
2010-08-03, 02:57:04,VALID,1002.41,VALID,0,VALID,104,VALID,0,VALID,23.3125,VALID,358,VALID,0,
2010-08-03, 02:58:04,VALID,1002.4,VALID,0,VALID,104,VALID,0,VALID,23.2948,VALID,358,VALID,0,
2010-08-03, 02:59:04,VALID,1002.41,VALID,0,VALID,104,VALID,0,VALID,23.2347,VALID,358,VALID,0,
2010-08-03, 03:00:04,VALID,1002.42,VALID,0,VALID,104,VALID,0,VALID,23.2152,VALID,358,VALID,0,
2010-08-03, 03:01:04,VALID,1002.41,VALID,0,VALID,104,VALID,0,VALID,23.1957,VALID,358,VALID,0,
2010-08-03, 03:02:04,VALID,1002.39,VALID,0,VALID,104,VALID,0,VALID,23.1957,VALID,358,VALID,0,
2010-08-03, 03:03:04,VALID,1002.35,VALID,0,VALID,104,VALID,0,VALID,23.2152,VALID,358,VALID,0,
2010-08-03, 03:04:04,VALID,1002.34,VALID,0,VALID,104,VALID,0,VALID,23.2736,VALID,358,VALID,0,
2010-08-03, 03:05:04,VALID,1002.33,VALID,0,VALID,104,VALID,0,VALID,23.2718,VALID,358,VALID,0,
2010-08-03, 03:06:04,VALID,1002.34,VALID,0,VALID,104,VALID,0.100563,VALID,23.2718,VALID,358,VALID,0,
2010-08-03, 03:07:04,VALID,1002.33,VALID,0,VALID,104,VALID,0,VALID,23.2524,VALID,358,VALID,0,
2010-08-03, 03:08:04,VALID,1002.32,VALID,0,VALID,104,VALID,0,VALID,23.2524,VALID,358,VALID,0,
2010-08-03, 03:09:04,VALID,1002.33,VALID,0,VALID,104,VALID,0,VALID,23.2541,VALID,358,VALID,0,
2010-08-03, 03:10:04,VALID,1002.34,VALID,0,VALID,104,VALID,0.100563,VALID,23.2524,VALID,358,VALID,0,
2010-08-03, 03:11:04,VALID,1002.33,VALID,0,VALID,104,VALID,0,VALID,23.2541,VALID,358,VALID,0,
2010-08-03, 03:12:04,VALID,1002.31,VALID,0,VALID,104,VALID,0,VALID,23.2541,VALID,358,VALID,0,
2010-08-03, 03:13:04,VALID,1002.35,VALID,0,VALID,104,VALID,0,VALID,23.2347,VALID,358,VALID,0,
2010-08-03, 03:14:04,VALID,1002.36,VALID,0,VALID,104,VALID,0,VALID,23.1957,VALID,358,VALID,0,
2010-08-03, 03:15:04,VALID,1002.38,VALID,0,VALID,104,VALID,0,VALID,23.1745,VALID,358,VALID,0,
2010-08-03, 03:16:04,VALID,1002.37,VALID,0,VALID,104,VALID,0.100563,VALID,23.2152,VALID,358,VALID,0,
2010-08-03, 03:17:04,VALID,1002.43,VALID,0,VALID,104,VALID,0,VALID,23.2541,VALID,358,VALID,0,
2010-08-03, 03:18:04,VALID,1002.45,VALID,0,VALID,104,VALID,0,VALID,23.2931,VALID,358,VALID,0,
2010-08-03, 03:19:04,VALID,1002.46,VALID,0,VALID,104,VALID,0,VALID,23.3143,VALID,358,VALID,0,
2010-08-03, 03:20:04,VALID,1002.49,VALID,0,VALID,104,VALID,0,VALID,23.3125,VALID,358,VALID,0,
2010-08-03, 03:21:04,VALID,1002.48,VALID,0,VALID,104,VALID,0.100563,VALID,23.3302,VALID,358,VALID,0,
2010-08-03, 03:22:04,VALID,1002.49,VALID,0,VALID,104,VALID,0,VALID,23.3709,VALID,358,VALID,0,
2010-08-03, 03:23:04,VALID,1002.48,VALID,0,VALID,104,VALID,0.100563,VALID,23.4098,VALID,358,VALID,0,
2010-08-03, 03:24:04,VALID,1002.48,VALID,0,VALID,104,VALID,0.100563,VALID,23.4487,VALID,358,VALID,0,
2010-08-03, 03:25:04,VALID,1002.46,VALID,0,VALID,104,VALID,0,VALID,23.4894,VALID,358,VALID,0,
2010-08-03, 03:26:04,VALID,1002.45,VALID,0,VALID,104,VALID,0,VALID,23.5071,VALID,358,VALID,0,
2010-08-03, 03:27:04,VALID,1002.44,VALID,0,VALID,104,VALID,0,VALID,23.5673,VALID,358,VALID,0,
2010-08-03, 03:28:04,VALID,1002.43,VALID,0,VALID,104,VALID,0,VALID,23.5266,VALID,358,VALID,0,
2010-08-03, 03:29:04,VALID,1002.44,VALID,0,VALID,104,VALID,0,VALID,23.4505,VALID,358,VALID,0,
2010-08-03, 03:30:04,VALID,1002.43,VALID,0,VALID,104,VALID,0,VALID,23.4116,VALID,358,VALID,0,
2010-08-03, 03:31:04,VALID,1002.43,VALID,0,VALID,104,VALID,0,VALID,23.4134,VALID,358,VALID,0,
2010-08-03, 03:32:04,VALID,1002.46,VALID,0,VALID,104,VALID,0,VALID,23.3514,VALID,358,VALID,0,
2010-08-03, 03:33:04,VALID,1002.44,VALID,0,VALID,104,VALID,0,VALID,23.3514,VALID,358,VALID,0,
2010-08-03, 03:34:04,VALID,1002.43,VALID,0,VALID,104,VALID,0,VALID,23.3532,VALID,358,VALID,0,
2010-08-03, 03:35:04,VALID,1002.44,VALID,0,VALID,104,VALID,0,VALID,23.2931,VALID,358,VALID,0,
2010-08-03, 03:36:04,VALID,1002.44,VALID,0,VALID,104,VALID,0,VALID,23.2948,VALID,358,VALID,0,
2010-08-03, 03:37:04,VALID,1002.43,VALID,0,VALID,104,VALID,0,VALID,23.2948,VALID,358,VALID,0,
2010-08-03, 03:38:04,VALID,1002.44,VALID,0,VALID,104,VALID,0,VALID,23.2736,VALID,358,VALID,0,
2010-08-03, 03:39:04,VALID,1002.46,VALID,0,VALID,104,VALID,0,VALID,23.3337,VALID,358,VALID,0,
2010-08-03, 03:40:04,VALID,1002.44,VALID,0,VALID,104,VALID,0.100563,VALID,23.3107,VALID,358,VALID,0,
2010-08-03, 03:41:04,VALID,1002.43,VALID,0,VALID,104,VALID,0,VALID,23.3514,VALID,358,VALID,0,
2010-08-03, 03:42:04,VALID,1002.44,VALID,0,VALID,104,VALID,0,VALID,23.4116,VALID,358,VALID,0,
2010-08-03, 03:43:04,VALID,1002.43,VALID,0,VALID,104,VALID,0,VALID,23.3709,VALID,358,VALID,0,
2010-08-03, 03:44:04,VALID,1002.39,VALID,0,VALID,104,VALID,0.100563,VALID,23.3514,VALID,358,VALID,0,
2010-08-03, 03:45:04,VALID,1002.43,VALID,0,VALID,104,VALID,0,VALID,23.332,VALID,358,VALID,0,
2010-08-03, 03:46:04,VALID,1002.4,VALID,0,VALID,104,VALID,0,VALID,23.3514,VALID,358,VALID,0,
2010-08-03, 03:47:04,VALID,1002.43,VALID,0,VALID,104,VALID,0,VALID,23.3497,VALID,358,VALID,0,
2010-08-03, 03:48:04,VALID,1002.44,VALID,0,VALID,104,VALID,0,VALID,23.3514,VALID,358,VALID,0,
2010-08-03, 03:49:04,VALID,1002.46,VALID,0,VALID,104,VALID,0,VALID,23.3514,VALID,358,VALID,0,
2010-08-03, 03:50:04,VALID,1002.46,VALID,0,VALID,104,VALID,0,VALID,23.332,VALID,358,VALID,0,
2010-08-03, 03:51:04,VALID,1002.47,VALID,0,VALID,104,VALID,0.100563,VALID,23.3514,VALID,358,VALID,0,
2010-08-03, 03:52:04,VALID,1002.5,VALID,0,VALID,104,VALID,0,VALID,23.332,VALID,358,VALID,0,
2010-08-03, 03:53:04,VALID,1002.49,VALID,0,VALID,104,VALID,0.100563,VALID,23.332,VALID,358,VALID,0,
2010-08-03, 03:54:04,VALID,1002.5,VALID,0,VALID,104,VALID,0,VALID,23.3514,VALID,358,VALID,0,
2010-08-03, 03:55:04,VALID,1002.54,VALID,0,VALID,104,VALID,0,VALID,23.3302,VALID,358,VALID,0,
2010-08-03, 03:56:04,VALID,1002.54,VALID,0,VALID,104,VALID,0,VALID,23.4098,VALID,358,VALID,0,
2010-08-03, 03:57:04,VALID,1002.53,VALID,0,VALID,104,VALID,0,VALID,23.4682,VALID,358,VALID,0,